This is the latest recevied weather packets stored in our database for station/object N1JOV-7. If no packets are shown the sender has not sent any weather packets the latest 10 day(s).
| Time | Temp. | Humidity | Pressure | Rain* | Wind** | Luminosity | Snow |
|---|---|---|---|---|---|---|---|
| 1777536062 | 6.11° C | 99% | 1010.9 hPa | 5.08 mm | - | - | - |
| 1777535462 | 6.11° C | 99% | 1011 hPa | 3.05 mm | - | - | - |
| 1777534862 | 6.11° C | 99% | 1011.3 hPa | 2.03 mm | - | - | - |
| 1777534262 | 6.11° C | 99% | 1011.5 hPa | 1.78 mm | - | - | - |
| 1777533661 | 6.11° C | 99% | 1011.5 hPa | 0.76 mm | - | - | - |
| 1777533061 | 6.11° C | 99% | 1011.6 hPa | 2.03 mm | - | - | - |
| 1777532461 | 6.11° C | 99% | 1011.6 hPa | 1.78 mm | - | - | - |
| 1777531861 | 6.11° C | 99% | 1011.7 hPa | 2.03 mm | - | - | - |
| 1777531262 | 6.11° C | 99% | 1011.9 hPa | 3.3 mm | - | - | - |
| 1777530662 | 6.11° C | 99% | 1012 hPa | 1.27 mm | - | - | - |
| 1777530062 | 6.11° C | 99% | 1012.3 hPa | 0.76 mm | - | - | - |
| 1777529462 | 6.11° C | 99% | 1012.2 hPa | 1.52 mm | - | - | - |
| 1777528861 | 6.11° C | 99% | 1012.2 hPa | 2.03 mm | - | - | - |
| 1777528261 | 6.11° C | 99% | 1012.6 hPa | 1.52 mm | - | - | - |
| 1777527661 | 6.11° C | 99% | 1012.8 hPa | 0 mm | - | - | - |
| 1777527061 | 6.11° C | 99% | 1013 hPa | 0.76 mm | - | - | - |
| 1777526462 | 6.11° C | 99% | 1013.1 hPa | 0.76 mm | - | - | - |
| 1777525862 | 6.11° C | 99% | 1013.3 hPa | 1.27 mm | - | - | - |
| 1777525262 | 6.11° C | 99% | 1013.3 hPa | 2.29 mm | - | - | - |
| 1777524662 | 6.11° C | 99% | 1013.3 hPa | 2.03 mm | - | - | - |
| 1777524061 | 6.11° C | 99% | 1013.7 hPa | 2.03 mm | - | - | - |
| 1777523461 | 6.11° C | 99% | 1013.7 hPa | 1.27 mm | - | - | - |
| 1777522861 | 5.56° C | 99% | 1013.9 hPa | 0.76 mm | - | - | - |
| 1777522261 | 5.56° C | 99% | 1013.9 hPa | 1.27 mm | - | - | - |
| 1777521662 | 5.56° C | 99% | 1013.9 hPa | 0.76 mm | - | - | - |
* Rain latest hour (hover to see other rain measurements)
** Current wind speed in m/s (hover to see current wind gust speed)